Погода в Большой Вишере

Россия / Новгородская область     58°54′41″N   32°05′06″E
темп.,
°C
ветер,
м/с
пор.,
м/с
влажн.,
%
обл.,
%
осадки,
мм/ч
давл.,
гПа
погр.,
м
26 января, вт
вт2600:00+2юв3997100 0.1 1006306
03:00+2юв31196100 0.1 1005369
06:00+2юв31193100 0.0 1005504
09:00+2вюв41193100 0.0 1004427
12:00+3юв51392100 1.3 1002515
15:00+3юв51290100 1.5 1001667
18:00+2юв51187100 0.0 1002719
21:00+1в51287100 0.0 1000721
27 января, ср
ср2700:00+1в4109296 0.0 999574
03:00+1юв499798 0.2 998550
06:00−2вюв399176 0.0 997456
09:00−2в249684 0.1 997171
12:00−1всв1293100 0.3 998217
15:000зюз128999 0.3 999314
18:00−1зюз2388100 0.1 1001232
21:00−1юз2494100 0.1 1003332
28 января, чт
чт2800:00−2ю139595 0.1 1005111
03:00−1ю129092 0.1 1006114
06:00−2юв239288 0.0 1006137
09:00−3юв239791 0.0 1007101
12:00−2юв258896 0.0 1007267
15:00−1вюв368893 0.0 1006342
18:00−1вюв3794100 0.0 1006300
21:00−2вюв3792100 0.1 1004341
29 января, пт
пт2900:00−2всв3796100 0.6 1003383
03:00−2в3795100 1.3 1001380
06:000всв3598100 0.6 999169
09:00+2юв41196100 1.1 998374
12:00+2юв3896100 0.1 997320
15:00+1в2499100 0.2 996142
18:00+1в2698100 1.4 994226
21:000в4897100 3.5 992580
30 января, сб
сб3000:00−2в4995100 1.4 991585
03:00−3в41092100 2.1 989556
06:00−4в5993100 0.6 989523
09:00−4в4994100 1.7 988434
12:00−2вюв4988100 0.4 989484
15:00−2вюв4785100 0.4 989653
18:00−2вюв3783100 0.0 990659
21:00−3юв3683100 0.1 991737